COSMOS 2513

Last updated on Jan. 19, 2020, 4:37 a.m. UTC

1 41121U 15075A   20018.33069977 -.00000143  00000-0  00000-0 0  9991
2 41121   0.0602 111.3054 0002826 190.2949  14.8805  1.00271323 15041
UTC
Height (km)
Latitude
Longitude
Inclination
Orbital Period
UTC large
Height (km)
Speed (km/s)
/
Latitude / Longitude
Inclination (degrees)
Orbital Period (minutes)
Azimuth
Elevation
Range (km)
Doppler Factor
iOS Compass Heading
iOS Angle

Next 30 passes for location: Hong Kong

Rise time Rise Azimuth (degrees) Set time Set Azimuth (degrees) Duration Max altitude (degrees)

No matching passes for this satellites